DECAYED
Showing default

FLOCK 4Y 35, 55057 (Decayed)

Orbit data source: Space-Track

FLOCK 4Y 35, 55057 was a payload satellite owned by Planet (US) in LEO that was launched on Tue, 03 Jan 2023 UTC via an FALCON 9 launch vehicle from the Air Force Eastern Test Range (AFETR). Payload-class satellites include a variety of spacecraft equipped with specific instruments for various scientific and technological missions. These include communications satellites like Starlink; space stations such as the ISS; scientific satellites like the Hubble; Earth observation satellites from companies like Planet Labs, Umbra, and HawkEye 360; GPS; miniature CubeSats for education and research; and military/defense satellites.

Not visible in the next 10 days
Identifier
55057, 2023-001BA
Orbit
Decayed
Country
Flag of USUS
Related business
Manufacturer
Planet
Mission
Decayed Commercial Imaging
Bus & Motor
CUBESAT 3U, Unknown motor
Mass
5.7 kg wet, 5.7 kg dry
Launch date (UTC)
2023-01-03 (4 years ago)
Launch vehicle
FALCON 9
Launch site
Air Force Eastern Test Range (AFETR)
Object type
Payload
Rocket body
Debris
Shape & HBR
Box + 2 Pan, 1.0 m
Radar Cross Section
0.108 m², Medium (>0.1 m² and < 1m²)

Expand to show TLE details & history
Last TLE update: 1 year ago

TLE from 1 year ago
0 FLOCK 4Y 35
1 55057U 23001BA  25169.69468648  .13948163  25221-5  41090-3 0  9991
2 55057  97.3351 246.1831 0019773 265.1707  94.7336 16.43143552137470
Epoch: 2025-06-18T16:40Z
TLE epoch observation values (Epoch: 2025-06-18T16:40:20.911Z)
Latitude
-0.0001°
Longitude
88.92294°
Altitude
161.803 km
Speed
7.808 km/s
True Right ascension
16h 24m 43s
True Declination
0° 00' 00"
Sunlit
Object was in full shadow at epoch
Visualization orbit readout
Latitude
Unknown
Longitude
Unknown
Altitude
Unknown
Speed
Unknown
Apparent Right ascension
Unknown
Apparent Declination
Unknown
Sunlit
N/A
Visualization observer readout
Local Sidereal Time
02:50:59
Azimuth
Unknown
Elevation
Unknown
Doppler factor
Unknown
Orbital elements
Apogee altitude
167.171 km
Perigee altitude
141.338 km
Semi-major axis
6,532.391 km
Eccentricity
0.00198
Inclination
97.3351°
RAAN
246.1831°
Arg. of periapsis
265.1707°
True anomaly
94.95936°
Mean anomaly
94.7336°
Eccentric anomaly
94.84649°
Mean motion
4.11088 °/min
Orbital period
87.57 mins
BSTAR
0.0004109
Loading maneuver chart data...
Computing Atmospheric mass density...
Loading historical data...
Loading historical data...
Loading historical data...
Loading historical data...
Loading historical data...
Loading historical data...
Loading historical data...

Documentation

Showing up to 5 results
|